Regional Weather Roundup
Issued by NWS Jackson, KY

Home | Current Version | Previous Version | Text Only | Print | Product List | Glossary On
Versions: 1 2 3 4 5 6 7 8 9 10 11 12 13 14 15 16 17 18 19 20 21 22 23 24 25 26 27 28 29 30 31 32 33 34 35 36 37 38 39 40 41 42 43 44 45 46 47 48 49 50
000
ASUS43 KJKL 270610
RWRJKL

EAST KENTUCKY HOURLY WEATHER ROUNDUP
NATIONAL WEATHER SERVICE JACKSON KY
100 AM EST MON FEB 27 2017

NOTE: "FAIR" INDICATES FEW OR NO CLOUDS BELOW 12,000 FEET WITH
NO SIGNIFICANT WEATHER AND/OR OBSTRUCTIONS TO VISIBILITY.

* THESE REPORTS ARE NOT UNDER NWS QUALITY CONTROL AND MAY NOT
  REPORT WEATHER SUCH AS PRECIPITATION AND FOG.

KYZ079-080-083-085-087-088-110-112-115-119-120-270700
...EASTERN KENTUCKY...

CITY           SKY/WX    TMP DP  RH WIND       PRES   REMARKS
JACKSON        CLOUDY    42  19  39 CALM      30.20R
6HR MIN TEMP:  41; 6HR MAX TEMP:  44;

LONDON         CLOUDY    39  26  59 E5        30.18F
6HR MIN TEMP:  35; 6HR MAX TEMP:  45;

SOMERSET*      CLOUDY    39  28  65 CALM      30.22R
MONTICELLO*    CLOUDY    46  22  38 VRB6      30.21R
6HR MIN TEMP:  33; 6HR MAX TEMP:  46;

WILLIAMSBURG*  CLOUDY    43  19  39 SE6       30.20R
MIDDLESBORO*   CLOUDY    33  27  80 CALM      30.24R
6HR MIN TEMP:  33; 6HR MAX TEMP:  43;

HARLAN APT*    CLOUDY    34  27  75 CALM      30.22S
PIKE CO APT*   MOCLDY    41  18  39 S5        30.20F
BIG SANDY APT* CLOUDY    41  20  43 CALM      30.21S
6HR MIN TEMP:  38; 6HR MAX TEMP:  44;

MOREHEAD APT*  CLOUDY    41  18  38 S5        30.21F
ASHLAND*       CLOUDY    36  28  75 CALM      30.21S
$$

KYZ035-036-041-042-044-050-067-078-099-270700
...CENTRAL KENTUCKY...

CITY           SKY/WX    TMP DP  RH WIND       PRES   REMARKS
FLEMING/MASON* CLOUDY    39  23  53 S5        30.20S
DANVILLE*      CLOUDY    43  23  45 W5        30.21R
LEXINGTON      CLOUDY    46  19  34 S10       30.18R
6HR MIN TEMP:  41; 6HR MAX TEMP:  46;

FRANKFORT      CLOUDY    44  20  38 S5        30.17R
6HR MIN TEMP:  38; 6HR MAX TEMP:  45;

LOUISVILLE     CLOUDY    45  19  35 CALM      30.18R
6HR MIN TEMP:  44; 6HR MAX TEMP:  48;

LEBANON*         N/A     46  25  42 SW12G18   30.20R
GLASGOW*       CLOUDY    43  29  57 N6        30.19R
BOWLING GREEN  CLOUDY    45  26  47 CALM      30.21R
6HR MIN TEMP:  42; 6HR MAX TEMP:  51;

$$

KYZ091>093-OHZ055-061-077-WVZ005-015-034-035-042-270700
...SOUTHERN OHIO/WEST VIRGINIA...

CITY           SKY/WX    TMP DP  RH WIND       PRES   REMARKS
COVINGTON      CLOUDY    40  22  48 S6        30.17S
COLUMBUS       CLOUDY    40  21  46 S5        30.19R
DAYTON         CLOUDY    40  18  41 S8        30.17S WCI  34
WILMINGTON     CLOUDY    38  22  52 S7        30.18R WCI  33
HUNTINGTON     CLOUDY    37  20  50 CALM      30.21R
CHARLESTON     CLOUDY    32  23  69 CALM      30.23R
PINEVILLE*       N/A     33  21  62 MISG      30.28S
BECKLEY        CLOUDY    37  12  35 SE8       30.21S WCI  31
BLUEFIELD      PTCLDY    37   7  28 CALM      30.22S
LOGAN CO APT*  CLOUDY    41  16  36 S5        30.21S
$$

VAZ002-007-008-TNZ017-027-036-066-071-270700
...SOUTHWEST VIRGINIA/EAST TENNESSEE...

CITY           SKY/WX    TMP DP  RH WIND       PRES   REMARKS
WISE*          CLOUDY    37  16  41 CALM      30.21S
JONESVILLE*    MOCLDY    30  27  86 CALM      30.25S
ABINGDON*      PTCLDY    34  21  57 CALM      30.23S
BRISTOL        PTCLDY    30  23  75 NE5       30.23S WCI  25
MORRISTOWN*    CLEAR     37  23  56 NE3       30.21R
SEVIERVILLE*   CLEAR     30  23  74 CALM      30.22R
KNOXVILLE      CLEAR     38  27  64 E6        30.21S WCI  33
LAFOLLETTE*    MOCLDY    34  28  80 CALM      30.25R
OAK RIDGE      PTCLDY    37  27  67 CALM      30.23S
CROSSVILLE     CLOUDY    45  20  36 CALM      30.18R
NASHVILLE      CLOUDY    49  28  44 VRB6      30.17S
$$

...KEY TO REMARKS...
VSB - VISIBILITY IN MILES
WCI - WIND CHILL INDEX
HX  - HEAT INDEX

$$



USA.gov is the U.S. government's official web portal to all federal, state and local government web resources and services.